sat.trackr.live / text

‹ back to catalog

ZORKY-2M 7

NORAD 67268 · 2025-313W

PAYLOAD ACTIVE UNKNOWN

§ Identity

Operator
Country
CIS
Launch date
2025-12-28
Launch site
VOSTO
Launch vehicle
Mass (kg)
RCS (m²)

External: N2YO · Heavens-Above · Gunter

§ Orbital elements

Epoch: 2026-05-25T03:43:58.509984Z

Period
94.60 min
Inclination
97.3951°
Eccentricity
0.0016486
Mean motion
15.22277501 rev/d
Perigee alt
487.6 km
Apogee alt
510.3 km
Semi-major
6,877.1 km
B*
3.0309e-4
RAAN
220.1271°
Arg perigee
87.3885°
Mean anomaly
272.9238°
Rev number
2,244

§ Raw data

ZORKY-2M 71 67268U 25313W   26145.15553831  .00006933  00000+0  30309-3 0  99902 67268  97.3951 220.1271 0016486  87.3885 272.9238 15.22277501 22441

JSON: /api/v1/satellites/67268 · /tle

For live sub-satellite position, see the globe view (requires WebGL).

§ Visibility from observer

Set your observer location to see the next 7 days of passes ≥ 10°. The values pass through the URL so the page stays shareable.

No JS? Fill the form by hand. The geolocation button needs JavaScript.